Location: Newark
(38.1089°N, 103.8675°W)
Time: 15:46:26
(UTC+00:00)

Envisat - Pass Details

Date: 15 December 2019
Orbit: 764 x 766 km, 98.1° (Epoch: 18 January)

Event Time Altitude Azimuth Distance (km) Brightness Sun altitude
Rises 13:16:16 0° 18° (NNE) 3,238 6.2 -9.4°
Reaches altitude 10° 13:18:40 10° 24° (NNE) 2,308 5.5 -8.9°
Maximum altitude 13:23:35 48° 99° (E) 990 4.2 -8.0°
Drops below altitude 10° 13:28:28 10° 174° (S) 2,292 5.9 -7.2°
Sets 13:30:50 0° 180° (S) 3,213 6.6 -6.7°
